CW9454 Weather Reports


Display with metric or nautical units.
time (UTC)temp
F
wind
direction
speed
MPH
gust
MPH
rain 1hr
in
rain 24hr
in
rain mn
in
humidity
%
barometer
mb
20260905060042 76 248 1.0 7.0 0.00 0.01 0.00 89 1011.3
20260905055014 76 248 0.0 5.0 0.00 0.01 0.00 89 1011.2
20260905054027 77 245 1.0 7.0 0.00 0.01 0.00 89 1011.3
20260905053022 77 248 1.0 4.0 0.00 0.01 0.00 89 1011.5
20260905052037 77 269 0.0 3.0 0.00 0.01 0.00 89 1011.5
20260905051053 77 277 0.0 4.0 0.00 0.01 0.00 89 1011.7
20260905050019 77 250 0.0 5.0 0.00 0.01 0.00 89 1011.9
20260905045013 77 251 1.0 6.0 0.00 0.06 0.00 89 1011.9
20260905044027 77 250 0.0 3.0 0.00 0.06 0.00 89 1011.9
20260905043040 78 250 0.0 3.0 0.00 0.06 0.00 88 1011.9
20260905042027 78 250 0.0 2.0 0.00 0.06 0.00 88 1011.8
20260905041021 78 250 0.0 0.0 0.00 0.06 0.00 88 1011.8
20260905040029 78 250 0.0 3.0 0.00 0.06 0.00 88 1012.0
20260905035023 78 250 0.0 3.0 0.00 0.06 0.06 88 1012.0
20260905034016 78 250 1.0 3.0 0.00 0.06 0.06 88 1012.2
20260905033029 78 250 0.0 3.0 0.00 0.06 0.06 88 1012.1
20260905032025 78 250 0.0 2.0 0.00 0.06 0.06 88 1012.1
20260905031040 79 250 0.0 1.0 0.00 0.06 0.06 87 1012.1
20260905030027 79 250 0.0 0.0 0.00 0.06 0.06 87 1012.2
20260905025024 79 250 0.0 3.0 0.00 0.06 0.06 87 1012.1
20260905024041 79 250 0.0 2.0 0.00 0.06 0.06 87 1012.2
20260905023026 79 250 0.0 0.0 0.00 0.06 0.06 86 1012.1
20260905022036 79 250 0.0 0.0 0.00 0.06 0.06 86 1011.9
20260905021039 79 250 0.0 0.0 0.00 0.06 0.06 85 1012.0
20260905020016 79 250 0.0 1.0 0.00 0.06 0.06 84 1012.0
20260905015041 79 250 0.0 1.0 0.00 0.06 0.06 84 1012.0
20260905014054 79 250 0.0 0.0 0.00 0.06 0.06 83 1011.9
20260905013018 79 250 0.0 0.0 0.00 0.06 0.06 83 1011.8
20260905012033 80 250 0.0 0.0 0.00 0.06 0.06 83 1011.7
20260905011029 80 250 0.0 0.0 0.00 0.06 0.06 83 1011.5
20260905010106 80 250 0.0 0.0 0.00 0.06 0.06 83 1011.5
20260905005037 80 250 0.0 0.0 0.00 0.06 0.06 82 1011.4
20260905004053 81 250 0.0 0.0 0.00 0.06 0.06 82 1011.4
20260905003047 81 250 0.0 0.0 0.00 0.06 0.06 81 1011.5
20260905002022 81 250 0.0 0.0 0.00 0.06 0.06 80 1011.6
20260905001035 82 250 0.0 0.0 0.00 0.06 0.06 79 1011.3
20260905000022 82 250 0.0 0.0 0.00 0.06 0.06 79 1011.3
20260904235036 82 250 0.0 0.0 0.00 0.06 0.06 78 1011.3
20260904234021 83 250 0.0 0.0 0.00 0.06 0.06 77 1011.3
20260904233015 83 250 0.0 0.0 0.00 0.06 0.06 76 1011.4
20260904232029 84 250 0.0 0.0 0.00 0.06 0.06 75 1011.5
20260904231024 84 250 0.0 0.0 0.00 0.06 0.06 75 1011.6
20260904230032 84 250 0.0 0.0 0.00 0.06 0.06 74 1011.5
20260904225043 85 250 0.0 0.0 0.00 0.06 0.06 73 1011.4
20260904224017 85 250 0.0 0.0 0.00 0.06 0.06 73 1011.3
20260904223032 85 250 0.0 0.0 0.00 0.06 0.06 72 1011.4
20260904222028 85 250 0.0 0.0 0.00 0.06 0.06 69 1011.6
20260904221023 86 250 0.0 1.0 0.00 0.06 0.06 68 1011.8
20260904220031 86 250 0.0 5.0 0.00 0.06 0.06 68 1012.1
20260904215026 86 250 0.0 3.0 0.00 0.06 0.06 68 1012.1
20260904214041 86 263 0.0 5.0 0.00 0.06 0.06 67 1011.9
20260904213023 87 247 0.0 1.0 0.00 0.06 0.06 67 1012.1
20260904212045 87 246 0.0 4.0 0.00 0.06 0.06 66 1012.0
20260904211038 88 250 0.0 2.0 0.00 0.06 0.06 65 1012.2
20260904210046 88 249 1.0 3.0 0.00 0.06 0.06 64 1012.1
20260904205019 88 254 1.0 5.0 0.00 0.06 0.06 63 1012.3
20260904204034 89 249 1.0 5.0 0.00 0.06 0.06 62 1012.5
20260904203025 89 300 1.0 8.0 0.00 0.06 0.06 61 1012.6
20260904202040 90 217 2.0 8.0 0.00 0.06 0.06 61 1012.6
20260904201055 90 259 3.0 8.0 0.00 0.06 0.06 60 1012.3
20260904200021 91 247 0.0 6.0 0.00 0.06 0.06 59 1012.0
20260904195035 91 242 1.0 7.0 0.00 0.06 0.06 59 1012.3
20260904194029 91 345 1.0 6.0 0.00 0.06 0.06 60 1012.3
20260904193043 91 243 3.0 8.0 0.00 0.06 0.06 60 1012.5
20260904192037 91 259 2.0 9.0 0.00 0.06 0.06 59 1012.5
20260904191023 91 274 0.0 7.0 0.00 0.06 0.06 59 1012.6
20260904190035 92 228 0.0 7.0 0.00 0.06 0.06 58 1012.8
20260904185020 92 223 3.0 10.0 0.00 0.06 0.06 57 1013.0
20260904184014 92 265 1.0 11.0 0.00 0.06 0.06 57 1013.1
20260904183028 92 224 1.0 6.0 0.00 0.06 0.06 57 1013.1
20260904182023 92 233 1.0 6.0 0.00 0.06 0.06 59 1013.2
20260904181016 91 320 0.0 5.0 0.00 0.06 0.06 60 1013.2
20260904180043 91 306 0.0 5.0 0.00 0.06 0.06 63 1013.1
20260904175015 90 305 0.0 7.0 0.00 0.06 0.06 62 1013.2
20260904174059 89 267 0.0 7.0 0.00 0.06 0.06 63 1013.3
20260904173023 88 283 0.0 8.0 0.00 0.06 0.06 65 1013.3
20260904172017 88 288 0.0 5.0 0.00 0.06 0.06 66 1013.5
20260904171030 87 284 1.0 5.0 0.00 0.06 0.06 65 1013.5
20260904170017 87 340 2.0 5.0 0.00 0.06 0.06 67 1013.6
20260904165031 86 327 1.0 6.0 0.00 0.06 0.06 68 1013.7
20260904164024 86 300 2.0 6.0 0.00 0.06 0.06 68 1013.8
20260904163017 86 254 2.0 7.0 0.00 0.06 0.06 68 1014.0
20260904162030 86 263 2.0 8.0 0.00 0.06 0.06 68 1014.2
20260904161018 87 277 0.0 8.0 0.00 0.06 0.06 67 1014.2
20260904160036 87 265 1.0 4.0 0.00 0.06 0.06 67 1014.1
20260904155028 87 242 1.0 5.0 0.00 0.06 0.06 66 1014.2
20260904154023 87 250 1.0 8.0 0.00 0.06 0.06 68 1014.4
20260904153038 86 270 1.0 5.0 0.00 0.06 0.06 71 1014.4
20260904152031 85 245 2.0 5.0 0.00 0.06 0.06 70 1014.4
20260904151016 85 331 0.0 5.0 0.00 0.06 0.06 73 1014.5
20260904150027 84 315 0.0 4.0 0.00 0.06 0.06 74 1014.3
20260904145042 82 309 0.0 5.0 0.00 0.06 0.06 76 1014.5
20260904144035 81 273 0.0 3.0 0.00 0.06 0.06 79 1014.5
20260904143028 79 281 0.0 5.0 0.00 0.06 0.06 83 1014.4
20260904142023 78 292 0.0 8.0 0.00 0.06 0.06 86 1014.5
20260904141038 77 263 0.0 4.0 0.00 0.06 0.06 88 1014.6
20260904140045 76 315 0.0 4.0 0.00 0.06 0.06 91 1014.4
20260904135018 75 312 0.0 5.0 0.00 0.06 0.06 93 1014.5
20260904134031 75 286 0.0 4.0 0.00 0.06 0.06 94 1014.6
20260904133025 74 279 0.0 2.0 0.00 0.06 0.06 94 1014.4
20260904132039 74 275 1.0 6.0 0.00 0.06 0.06 95 1014.2
20260904131034 73 251 0.0 2.0 0.00 0.06 0.06 95 1014.2
20260904130041 73 249 0.0 0.0 0.00 0.06 0.06 95 1014.3
20260904125014 73 249 0.0 2.0 0.00 0.06 0.06 95 1014.4
20260904124028 73 249 0.0 1.0 0.00 0.06 0.06 95 1014.6
20260904123013 73 249 0.0 2.0 0.00 0.06 0.06 95 1014.7
20260904122057 72 248 0.0 4.0 0.00 0.06 0.06 95 1014.6
20260904121051 72 242 1.0 5.0 0.00 0.06 0.06 95 1014.7
20260904120016 72 246 0.0 1.0 0.00 0.06 0.06 94 1014.5
20260904115027 72 245 0.0 0.0 0.00 0.06 0.06 94 1014.4
20260904114021 72 245 0.0 0.0 0.00 0.06 0.06 94 1014.4
20260904113035 72 245 0.0 0.0 0.00 0.06 0.06 94 1014.4
20260904112019 72 245 0.0 0.0 0.00 0.06 0.06 94 1014.3
20260904111041 72 245 0.0 0.0 0.00 0.06 0.06 94 1013.9
20260904110019 72 245 0.0 2.0 0.01 0.06 0.06 94 1013.9
20260904105014 72 244 0.0 0.0 0.01 0.06 0.06 94 1013.8
20260904104028 72 244 0.0 0.0 0.01 0.06 0.06 94 1013.8
20260904103024 72 244 0.0 0.0 0.01 0.06 0.06 94 1013.7
20260904102037 72 244 0.0 0.0 0.01 0.06 0.06 94 1013.6
20260904101030 72 244 0.0 4.0 0.01 0.06 0.06 94 1013.8
20260904100017 72 247 0.0 4.0 0.00 0.05 0.05 94 1014.2
20260904095031 72 215 0.0 4.0 0.00 0.05 0.05 94 1014.3
20260904094046 72 162 0.0 3.0 0.00 0.05 0.05 93 1013.7
20260904093020 72 159 0.0 0.0 0.00 0.05 0.05 93 1013.2
20260904092014 72 159 0.0 0.0 0.00 0.05 0.05 93 1013.3
20260904091030 72 159 0.0 0.0 0.00 0.05 0.05 93 1013.3
20260904090016 72 159 0.0 0.0 0.00 0.05 0.05 93 1013.5
20260904085029 72 159 0.0 0.0 0.00 0.05 0.05 93 1013.5
20260904084024 72 159 0.0 0.0 0.00 0.05 0.05 93 1013.4
20260904083037 72 159 0.0 0.0 0.00 0.05 0.05 93 1013.4
20260904082032 72 159 0.0 0.0 0.00 0.05 0.05 93 1013.5
20260904081016 73 159 0.0 0.0 0.00 0.05 0.05 93 1013.8
20260904080031 73 146 0.0 0.0 0.00 0.05 0.05 93 1013.7
20260904075017 73 146 0.0 2.0 0.00 0.05 0.05 92 1013.9
20260904074032 73 120 0.0 1.0 0.00 0.05 0.05 92 1014.0
20260904073027 73 119 0.0 2.0 0.00 0.05 0.05 92 1013.8
20260904072036 73 153 0.0 0.0 0.00 0.05 0.05 92 1013.7
20260904071030 73 153 0.0 0.0 0.00 0.05 0.05 92 1013.8
20260904070018 73 153 0.0 0.0 0.00 0.05 0.05 91 1013.5
20260904065031 73 153 0.0 2.0 0.00 0.05 0.05 91 1013.7
20260904064026 73 211 0.0 1.0 0.00 0.05 0.05 90 1013.6
20260904063019 73 212 0.0 2.0 0.00 0.05 0.05 90 1013.5
20260904062034 74 243 0.0 0.0 0.00 0.05 0.05 90 1013.5
20260904061030 74 243 0.0 7.0 0.00 0.05 0.05 89 1013.3